BAW558A EGLL-LGAV

Flight info

Callsign BAW558A
Flight time 3h 9m
Altitude 39000
Route DET L6 DVR UL9 KONAN DCT KOK DCT SISGA DCT KOMOB DCT BANUX DCT BABEG DCT KUMOM DCT NIPEL DCT ABISO DCT NEMEK DCT ELTIB DCT PINDO DCT PIKOS UL607 XORKI
Aircraft A35K/H-SDE2E3GHIJ3J4J5LM1ORWXY/LB1D1

Departure

Time 2026-05-07 19:54
Airport London Heathrow Airport (EGLL)

Arrival

Time 2026-05-07 23:03
Airport Athens Eleftherios Venizelos International Airport (LGAV)
Time Latitude Longitude Altitude Speed Heading
2026-05-07 19:14 51.46982 -0.48238 95 ft 0 kts 90°
2026-05-07 19:34 51.46982 -0.48239 95 ft 1 kts 90°
2026-05-07 19:35 51.46982 -0.48278 94 ft 4 kts 90°
2026-05-07 19:35 51.46982 -0.48313 93 ft 4 kts 96°
2026-05-07 19:35 51.46990 -0.48348 91 ft 4 kts 148°
2026-05-07 19:35 51.47013 -0.48356 92 ft 4 kts 180°
2026-05-07 19:36 51.47038 -0.48356 93 ft 2 kts 180°
2026-05-07 19:36 51.47039 -0.48356 93 ft 0 kts 180°
2026-05-07 19:36 51.47038 -0.48356 93 ft 0 kts 180°
2026-05-07 19:41 51.47033 -0.48356 93 ft 3 kts 179°
2026-05-07 19:41 51.46997 -0.48355 93 ft 8 kts 179°
2026-05-07 19:41 51.46933 -0.48353 94 ft 10 kts 179°
2026-05-07 19:41 51.46861 -0.48352 92 ft 10 kts 180°
2026-05-07 19:42 51.46850 -0.48352 92 ft 0 kts 180°
2026-05-07 19:46 51.46831 -0.48352 92 ft 5 kts 180°
2026-05-07 19:46 51.46777 -0.48358 92 ft 9 kts 197°
2026-05-07 19:46 51.46742 -0.48450 95 ft 11 kts 263°
2026-05-07 19:46 51.46741 -0.48556 94 ft 0 kts 270°
2026-05-07 19:47 51.46741 -0.48588 92 ft 6 kts 270°
2026-05-07 19:47 51.46740 -0.48678 92 ft 9 kts 267°
2026-05-07 19:47 51.46708 -0.48731 95 ft 0 kts 199°
2026-05-07 19:47 51.46698 -0.48736 97 ft 4 kts 198°
2026-05-07 19:48 51.46659 -0.48744 96 ft 6 kts 186°
2026-05-07 19:48 51.46611 -0.48760 95 ft 0 kts 196°
2026-05-07 19:52 51.46606 -0.48762 96 ft 3 kts 196°
2026-05-07 19:52 51.46569 -0.48778 94 ft 8 kts 192°
2026-05-07 19:52 51.46506 -0.48750 97 ft 11 kts 137°
2026-05-07 19:53 51.46482 -0.48625 95 ft 13 kts 90°
2026-05-07 19:53 51.46482 -0.48614 96 ft 0 kts 90°
2026-05-07 19:54 51.46482 -0.48589 94 ft 9 kts 90°
2026-05-07 19:54 51.46485 -0.47936 96 ft 118 kts 90°
2026-05-07 19:54 51.46488 -0.46138 507 ft 187 kts 90°
2026-05-07 19:54 51.46502 -0.43859 1502 ft 228 kts 89°
2026-05-07 19:55 51.46097 -0.41203 2431 ft 254 kts 117°
2026-05-07 19:55 51.45304 -0.38749 3693 ft 250 kts 117°
2026-05-07 19:55 51.44547 -0.36216 4773 ft 255 kts 113°
2026-05-07 19:55 51.43900 -0.33533 5495 ft 260 kts 110°
2026-05-07 19:56 51.43297 -0.30788 5870 ft 262 kts 109°
2026-05-07 19:56 51.42749 -0.27987 5943 ft 264 kts 104°
2026-05-07 19:56 51.42327 -0.25122 5944 ft 265 kts 102°
2026-05-07 19:56 51.41934 -0.22232 5944 ft 265 kts 102°
2026-05-07 19:57 51.41542 -0.19338 5983 ft 266 kts 102°
2026-05-07 19:57 51.41148 -0.16450 5999 ft 265 kts 102°
2026-05-07 19:57 51.40753 -0.13560 6046 ft 265 kts 102°
2026-05-07 19:57 51.40353 -0.10659 6536 ft 269 kts 102°
2026-05-07 19:58 51.39947 -0.07724 7626 ft 270 kts 102°
2026-05-07 19:58 51.39539 -0.04783 8824 ft 271 kts 102°
2026-05-07 19:58 51.39126 -0.01813 9921 ft 276 kts 102°
2026-05-07 19:58 51.38699 0.01254 10748 ft 293 kts 102°
2026-05-07 19:59 51.38395 0.03437 11041 ft 312 kts 102°
2026-05-07 19:59 51.37752 0.08051 11706 ft 342 kts 102°
2026-05-07 19:59 51.37230 0.11811 12627 ft 350 kts 102°
2026-05-07 19:59 51.36691 0.15647 13611 ft 356 kts 103°
2026-05-07 20:00 51.36142 0.19544 14567 ft 361 kts 102°
2026-05-07 20:00 51.35623 0.23509 15484 ft 367 kts 101°
2026-05-07 20:00 51.35136 0.27544 16372 ft 372 kts 101°
2026-05-07 20:00 51.34657 0.31636 17247 ft 377 kts 100°
2026-05-07 20:01 51.34173 0.35787 18127 ft 382 kts 101°
2026-05-07 20:01 51.33677 0.39993 19001 ft 387 kts 101°
2026-05-07 20:01 51.33168 0.44251 19887 ft 392 kts 101°
2026-05-07 20:01 51.32647 0.48556 20753 ft 397 kts 101°
2026-05-07 20:02 51.32115 0.52912 21583 ft 402 kts 101°
2026-05-07 20:02 51.31574 0.57321 22369 ft 407 kts 101°
2026-05-07 20:02 51.31023 0.61785 23135 ft 412 kts 101°
2026-05-07 20:02 51.30463 0.66309 23886 ft 417 kts 101°
2026-05-07 20:03 51.29894 0.70892 24621 ft 421 kts 101°
2026-05-07 20:03 51.29321 0.75495 25340 ft 426 kts 101°
2026-05-07 20:03 51.28738 0.80159 26044 ft 430 kts 101°
2026-05-07 20:03 51.28154 0.84815 26735 ft 435 kts 101°
2026-05-07 20:04 51.27556 0.89578 27423 ft 439 kts 101°
2026-05-07 20:04 51.26950 0.94379 28072 ft 444 kts 101°
2026-05-07 20:04 51.26335 0.99235 28660 ft 449 kts 101°
2026-05-07 20:04 51.25713 1.04125 28950 ft 449 kts 101°
2026-05-07 20:05 51.24463 1.13913 28999 ft 452 kts 101°
2026-05-07 20:05 51.23198 1.23744 28997 ft 452 kts 102°
2026-05-07 20:06 51.21920 1.33603 29365 ft 456 kts 102°
2026-05-07 20:06 51.21272 1.38574 30019 ft 459 kts 102°
2026-05-07 20:06 51.20619 1.43566 30598 ft 461 kts 102°
2026-05-07 20:07 51.19960 1.48594 31141 ft 465 kts 102°
2026-05-07 20:07 51.19291 1.53670 31640 ft 469 kts 102°
2026-05-07 20:07 51.18625 1.58711 32123 ft 472 kts 102°
2026-05-07 20:07 51.17935 1.63918 32579 ft 475 kts 102°
2026-05-07 20:08 51.17216 1.69079 33009 ft 478 kts 104°
2026-05-07 20:08 51.16212 1.74043 33593 ft 477 kts 110°
2026-05-07 20:08 51.15026 1.78971 34231 ft 474 kts 112°
2026-05-07 20:08 51.13774 1.83820 34773 ft 473 kts 112°
2026-05-07 20:09 51.12486 1.88635 35304 ft 472 kts 113°
2026-05-07 20:09 51.11183 1.93429 35799 ft 471 kts 113°
2026-05-07 20:09 51.09882 1.98207 36264 ft 470 kts 113°
2026-05-07 20:10 51.07289 2.07759 37107 ft 470 kts 113°
2026-05-07 20:10 51.05997 2.12532 37487 ft 470 kts 113°
2026-05-07 20:10 51.04705 2.17308 37854 ft 470 kts 113°
2026-05-07 20:10 51.03412 2.22082 38211 ft 470 kts 113°
2026-05-07 20:11 51.02117 2.26855 38569 ft 471 kts 113°
2026-05-07 20:11 51.00821 2.31627 38888 ft 471 kts 113°
2026-05-07 20:11 50.99517 2.36412 38993 ft 472 kts 113°
2026-05-07 20:12 50.96909 2.45956 39003 ft 471 kts 113°
2026-05-07 20:12 50.94291 2.55495 39003 ft 472 kts 113°
2026-05-07 20:13 50.91663 2.65028 39005 ft 472 kts 114°
2026-05-07 20:13 50.89026 2.74556 38998 ft 472 kts 114°
2026-05-07 20:14 50.86385 2.84062 38999 ft 472 kts 114°
2026-05-07 20:14 50.85078 2.88750 39143 ft 473 kts 114°
2026-05-07 20:14 50.83747 2.93515 39460 ft 473 kts 114°
2026-05-07 20:14 50.82418 2.98264 39798 ft 472 kts 114°
2026-05-07 20:15 50.81089 3.03005 40113 ft 471 kts 114°
2026-05-07 20:15 50.79759 3.07739 40402 ft 471 kts 114°
2026-05-07 20:15 50.78427 3.12470 40681 ft 471 kts 114°
2026-05-07 20:15 50.77094 3.17196 40928 ft 472 kts 114°
2026-05-07 20:16 50.75754 3.21936 40993 ft 472 kts 114°
2026-05-07 20:16 50.73074 3.31390 41000 ft 472 kts 114°
2026-05-07 20:17 50.70384 3.40841 41000 ft 472 kts 114°
2026-05-07 20:17 50.67682 3.50296 41000 ft 472 kts 114°
2026-05-07 20:18 50.64975 3.59730 41000 ft 472 kts 114°
2026-05-07 20:18 50.62261 3.69152 40999 ft 472 kts 114°
2026-05-07 20:19 50.59539 3.78561 40999 ft 472 kts 114°
2026-05-07 20:19 50.56831 3.87891 40998 ft 472 kts 114°
2026-05-07 20:20 50.54091 3.97290 40999 ft 472 kts 115°
2026-05-07 20:20 50.51327 4.06736 41001 ft 473 kts 115°
2026-05-07 20:21 50.48591 4.16051 40999 ft 473 kts 115°
2026-05-07 20:21 50.45827 4.25423 40999 ft 473 kts 115°
2026-05-07 20:22 50.43053 4.34790 40999 ft 473 kts 115°
2026-05-07 20:22 50.40274 4.44142 40999 ft 473 kts 115°
2026-05-07 20:23 50.37488 4.53478 41002 ft 473 kts 115°
2026-05-07 20:23 50.34710 4.62753 41000 ft 473 kts 115°
2026-05-07 20:24 50.31901 4.72097 41001 ft 474 kts 115°
2026-05-07 20:24 50.29084 4.81430 41000 ft 474 kts 115°
2026-05-07 20:25 50.26265 4.90735 41001 ft 473 kts 115°
2026-05-07 20:25 50.23493 4.99849 40998 ft 473 kts 115°
2026-05-07 20:26 50.21010 5.07985 40999 ft 474 kts 115°
2026-05-07 20:26 50.18169 5.17262 41002 ft 474 kts 115°
2026-05-07 20:27 50.15321 5.26526 41000 ft 473 kts 115°
2026-05-07 20:27 50.12460 5.35794 41000 ft 474 kts 116°
2026-05-07 20:28 50.09589 5.45062 40998 ft 475 kts 116°
2026-05-07 20:28 50.06709 5.54325 40999 ft 475 kts 116°
2026-05-07 20:29 50.03822 5.63577 40999 ft 475 kts 116°
2026-05-07 20:29 50.00924 5.72824 41000 ft 475 kts 116°
2026-05-07 20:30 49.98020 5.82059 40998 ft 476 kts 116°
2026-05-07 20:30 49.95108 5.91287 41002 ft 475 kts 116°
2026-05-07 20:31 49.92191 6.00495 40999 ft 475 kts 116°
2026-05-07 20:31 49.89268 6.09685 41000 ft 475 kts 116°
2026-05-07 20:32 49.86359 6.18801 41000 ft 474 kts 116°
2026-05-07 20:32 49.83427 6.27953 40999 ft 474 kts 116°
2026-05-07 20:33 49.80476 6.37132 41000 ft 474 kts 116°
2026-05-07 20:33 49.77538 6.46236 41000 ft 474 kts 116°
2026-05-07 20:34 49.74586 6.55351 40998 ft 474 kts 116°
2026-05-07 20:34 49.71626 6.64458 41000 ft 474 kts 116°
2026-05-07 20:35 49.68659 6.73555 41003 ft 474 kts 117°
2026-05-07 20:35 49.65681 6.82648 41001 ft 475 kts 117°
2026-05-07 20:36 49.62688 6.91758 40999 ft 476 kts 117°
2026-05-07 20:36 49.59707 7.00798 40999 ft 475 kts 117°
2026-05-07 20:37 49.56705 7.09870 40999 ft 475 kts 117°
2026-05-07 20:37 49.53693 7.18938 41000 ft 475 kts 117°
2026-05-07 20:38 49.51186 7.26458 41000 ft 475 kts 117°
2026-05-07 20:38 49.47653 7.37024 40999 ft 475 kts 117°
2026-05-07 20:39 49.45136 7.44523 40999 ft 474 kts 117°
2026-05-07 20:39 49.42104 7.53527 41000 ft 474 kts 117°
2026-05-07 20:40 49.39070 7.62506 40998 ft 474 kts 117°
2026-05-07 20:40 49.36024 7.71490 40999 ft 475 kts 117°
2026-05-07 20:41 49.32969 7.80467 40999 ft 475 kts 117°
2026-05-07 20:41 49.29922 7.89388 41002 ft 475 kts 117°
2026-05-07 20:42 49.26845 7.98367 40999 ft 475 kts 117°
2026-05-07 20:42 49.23771 8.07307 41000 ft 475 kts 118°
2026-05-07 20:43 49.20689 8.16236 40999 ft 474 kts 118°
2026-05-07 20:43 49.17610 8.25127 41003 ft 473 kts 118°
2026-05-07 20:44 49.14528 8.33996 41000 ft 473 kts 118°
2026-05-07 20:44 49.11438 8.42860 41000 ft 473 kts 118°
2026-05-07 20:45 49.08338 8.51720 40999 ft 473 kts 118°
2026-05-07 20:45 49.05234 8.60561 41000 ft 473 kts 118°
2026-05-07 20:46 49.02138 8.69348 41002 ft 473 kts 118°
2026-05-07 20:46 48.99016 8.78179 41001 ft 474 kts 118°
2026-05-07 20:47 48.95884 8.87011 41000 ft 474 kts 118°
2026-05-07 20:47 48.92740 8.95842 41003 ft 474 kts 118°
2026-05-07 20:48 48.89614 9.04597 40999 ft 474 kts 118°
2026-05-07 20:48 48.86463 9.13390 41000 ft 474 kts 118°
2026-05-07 20:49 48.83302 9.22182 41002 ft 474 kts 118°
2026-05-07 20:49 48.80137 9.30955 41002 ft 474 kts 118°
2026-05-07 20:50 48.76962 9.39727 41001 ft 474 kts 118°
2026-05-07 20:50 48.73780 9.48488 40998 ft 475 kts 119°
2026-05-07 20:51 48.70586 9.57252 40999 ft 475 kts 119°
2026-05-07 20:51 48.67391 9.65990 41000 ft 474 kts 119°
2026-05-07 20:52 48.64103 9.74656 41000 ft 475 kts 121°
2026-05-07 20:52 48.60713 9.83165 41000 ft 476 kts 121°
2026-05-07 20:53 48.57292 9.91739 41000 ft 476 kts 121°
2026-05-07 20:53 48.53884 10.00323 40999 ft 477 kts 121°
2026-05-07 20:54 48.50478 10.08905 40999 ft 476 kts 121°
2026-05-07 20:54 48.47075 10.17459 41001 ft 475 kts 121°
2026-05-07 20:55 48.43664 10.25999 41002 ft 475 kts 121°
2026-05-07 20:55 48.40248 10.34524 41000 ft 475 kts 121°
2026-05-07 20:56 48.36826 10.43037 41000 ft 476 kts 121°
2026-05-07 20:56 48.33396 10.51542 40999 ft 476 kts 121°
2026-05-07 20:57 48.29958 10.60042 41000 ft 476 kts 121°
2026-05-07 20:57 48.26537 10.68471 40999 ft 476 kts 121°
2026-05-07 20:58 48.23085 10.76950 41001 ft 476 kts 121°
2026-05-07 20:58 48.19628 10.85414 41001 ft 476 kts 121°
2026-05-07 20:59 48.16166 10.93864 41000 ft 476 kts 121°
2026-05-07 20:59 48.12697 11.02307 40999 ft 476 kts 121°
2026-05-07 21:00 48.09219 11.10742 41000 ft 476 kts 122°
2026-05-07 21:00 48.05733 11.19172 41003 ft 476 kts 122°
2026-05-07 21:01 48.02264 11.27536 41000 ft 476 kts 122°
2026-05-07 21:01 47.98741 11.36002 41000 ft 477 kts 122°
2026-05-07 21:02 47.95236 11.44398 41000 ft 477 kts 122°
2026-05-07 21:02 47.91746 11.52732 41000 ft 477 kts 122°
2026-05-07 21:03 47.88120 11.60997 40999 ft 477 kts 128°
2026-05-07 21:03 47.83721 11.68397 40999 ft 477 kts 134°
2026-05-07 21:04 47.79077 11.75458 40999 ft 477 kts 135°
2026-05-07 21:04 47.74390 11.82461 41000 ft 478 kts 135°
2026-05-07 21:05 47.69706 11.89489 41000 ft 478 kts 134°
2026-05-07 21:05 47.65058 11.96486 41000 ft 481 kts 134°
2026-05-07 21:06 47.60357 12.03555 41000 ft 481 kts 134°
2026-05-07 21:06 47.55659 12.10599 41000 ft 479 kts 135°
2026-05-07 21:07 47.50977 12.17600 40999 ft 478 kts 135°
2026-05-07 21:07 47.46288 12.24590 40998 ft 479 kts 135°
2026-05-07 21:08 47.41612 12.31541 41002 ft 480 kts 135°
2026-05-07 21:08 47.36892 12.38541 40998 ft 482 kts 135°
2026-05-07 21:09 47.32150 12.45553 40998 ft 482 kts 135°
2026-05-07 21:09 47.27397 12.52562 41002 ft 482 kts 135°
2026-05-07 21:10 47.22668 12.59519 40999 ft 480 kts 135°
2026-05-07 21:10 47.17925 12.66476 40999 ft 484 kts 135°
2026-05-07 21:11 47.13147 12.73467 40996 ft 490 kts 135°
2026-05-07 21:11 47.05876 12.84069 41000 ft 490 kts 135°
2026-05-07 21:12 47.01050 12.91081 41000 ft 486 kts 135°
2026-05-07 21:12 46.96230 12.98067 41000 ft 488 kts 135°
2026-05-07 21:13 46.91401 13.05047 41002 ft 488 kts 135°
2026-05-07 21:13 46.86593 13.11977 41000 ft 484 kts 135°
2026-05-07 21:14 46.81769 13.18912 41000 ft 488 kts 135°
2026-05-07 21:14 46.76930 13.25851 41003 ft 486 kts 135°
2026-05-07 21:15 46.72147 13.32689 41000 ft 479 kts 135°
2026-05-07 21:15 46.67408 13.39449 41000 ft 480 kts 135°
2026-05-07 21:16 46.62588 13.46306 41003 ft 482 kts 135°
2026-05-07 21:16 46.57846 13.53034 41001 ft 477 kts 136°
2026-05-07 21:17 46.53080 13.59779 40999 ft 480 kts 136°
2026-05-07 21:17 46.48290 13.66540 41003 ft 479 kts 136°
2026-05-07 21:18 46.43502 13.73281 40997 ft 482 kts 136°
2026-05-07 21:18 46.38671 13.80066 41001 ft 484 kts 136°
2026-05-07 21:19 46.33822 13.86857 41000 ft 486 kts 136°
2026-05-07 21:19 46.28984 13.93616 41002 ft 480 kts 136°
2026-05-07 21:20 46.24197 14.00286 41001 ft 477 kts 136°
2026-05-07 21:20 46.19424 14.06920 40998 ft 479 kts 136°
2026-05-07 21:21 46.14613 14.13588 41000 ft 480 kts 136°
2026-05-07 21:21 46.09806 14.20236 41000 ft 477 kts 136°
2026-05-07 21:22 46.05015 14.26843 40999 ft 477 kts 136°
2026-05-07 21:22 46.00226 14.33432 41001 ft 476 kts 136°
2026-05-07 21:23 45.95447 14.39990 40999 ft 474 kts 136°
2026-05-07 21:23 45.90662 14.46540 40998 ft 476 kts 136°
2026-05-07 21:24 45.85883 14.53066 40999 ft 477 kts 136°
2026-05-07 21:24 45.81071 14.59620 41002 ft 477 kts 136°
2026-05-07 21:25 45.76257 14.66161 41002 ft 477 kts 136°
2026-05-07 21:25 45.71445 14.72682 41001 ft 476 kts 136°
2026-05-07 21:26 45.66634 14.79187 40999 ft 476 kts 136°
2026-05-07 21:26 45.61803 14.85701 40998 ft 478 kts 136°
2026-05-07 21:27 45.57776 14.91119 40999 ft 477 kts 136°
2026-05-07 21:27 45.52949 14.97599 40999 ft 476 kts 136°
2026-05-07 21:28 45.48126 15.04057 41002 ft 475 kts 137°
2026-05-07 21:28 45.43297 15.10507 40999 ft 476 kts 137°
2026-05-07 21:29 45.38466 15.16944 40999 ft 476 kts 137°
2026-05-07 21:29 45.33630 15.23373 40999 ft 476 kts 137°
2026-05-07 21:30 45.28823 15.29747 41001 ft 475 kts 137°
2026-05-07 21:30 45.23999 15.36127 41000 ft 474 kts 137°
2026-05-07 21:31 45.19169 15.42500 41000 ft 474 kts 137°
2026-05-07 21:31 45.14338 15.48860 40999 ft 474 kts 137°
2026-05-07 21:32 45.09498 15.55215 41000 ft 474 kts 137°
2026-05-07 21:32 45.04657 15.61557 41002 ft 475 kts 137°
2026-05-07 21:33 44.99804 15.67898 40999 ft 475 kts 137°
2026-05-07 21:33 44.94952 15.74224 41002 ft 475 kts 137°
2026-05-07 21:34 44.90129 15.80497 40999 ft 474 kts 137°
2026-05-07 21:34 44.85241 15.86838 41002 ft 474 kts 137°
2026-05-07 21:35 44.80419 15.93078 41001 ft 474 kts 137°
2026-05-07 21:35 44.75556 15.99358 41000 ft 475 kts 137°
2026-05-07 21:36 44.70674 16.05647 41001 ft 477 kts 137°
2026-05-07 21:36 44.65773 16.11945 40998 ft 477 kts 137°
2026-05-07 21:37 44.60858 16.18245 41000 ft 479 kts 137°
2026-05-07 21:37 44.55941 16.24533 40999 ft 477 kts 137°
2026-05-07 21:38 44.51058 16.30764 41000 ft 478 kts 137°
2026-05-07 21:38 44.46118 16.37052 40998 ft 480 kts 137°
2026-05-07 21:39 44.41168 16.43337 41000 ft 480 kts 137°
2026-05-07 21:39 44.36215 16.49610 40998 ft 482 kts 138°
2026-05-07 21:40 44.31247 16.55889 41001 ft 480 kts 138°
2026-05-07 21:40 44.26334 16.62083 41002 ft 479 kts 138°
2026-05-07 21:41 44.21379 16.68315 41001 ft 479 kts 138°
2026-05-07 21:41 44.16425 16.74531 41000 ft 479 kts 138°
2026-05-07 21:42 44.11464 16.80741 41002 ft 479 kts 138°
2026-05-07 21:42 44.06509 16.86930 41000 ft 479 kts 138°
2026-05-07 21:43 44.01550 16.93109 41000 ft 479 kts 138°
2026-05-07 21:43 43.96574 16.99294 41000 ft 481 kts 138°
2026-05-07 21:44 43.91577 17.05490 41001 ft 483 kts 138°
2026-05-07 21:44 43.86558 17.11700 40999 ft 484 kts 138°
2026-05-07 21:45 43.81536 17.17899 41002 ft 483 kts 138°
2026-05-07 21:45 43.76538 17.24054 41001 ft 480 kts 138°
2026-05-07 21:46 43.71553 17.30177 41001 ft 479 kts 138°
2026-05-07 21:46 43.66603 17.36246 40999 ft 480 kts 138°
2026-05-07 21:47 43.61598 17.42366 40999 ft 480 kts 138°
2026-05-07 21:47 43.56591 17.48475 41001 ft 481 kts 138°
2026-05-07 21:48 43.51574 17.54581 40999 ft 481 kts 139°
2026-05-07 21:48 43.46540 17.60694 41000 ft 482 kts 139°
2026-05-07 21:49 43.41525 17.66771 41001 ft 479 kts 139°
2026-05-07 21:49 43.36522 17.72819 41001 ft 478 kts 139°
2026-05-07 21:50 43.31538 17.78830 41001 ft 476 kts 139°
2026-05-07 21:50 43.26575 17.84803 41000 ft 473 kts 139°
2026-05-07 21:51 43.21633 17.90737 41000 ft 472 kts 139°
2026-05-07 21:51 43.16667 17.96686 41000 ft 475 kts 139°
2026-05-07 21:52 43.11703 18.02619 41000 ft 477 kts 139°
2026-05-07 21:52 43.06688 18.08600 41000 ft 478 kts 139°
2026-05-07 21:53 43.01676 18.14564 41000 ft 478 kts 139°
2026-05-07 21:53 42.96655 18.20524 41000 ft 478 kts 139°
2026-05-07 21:54 42.91629 18.26478 41002 ft 479 kts 139°
2026-05-07 21:54 42.86584 18.32441 40999 ft 480 kts 139°
2026-05-07 21:55 42.81539 18.38390 41001 ft 478 kts 139°
2026-05-07 21:55 42.76541 18.44271 41000 ft 477 kts 139°
2026-05-07 21:56 42.71526 18.50158 41000 ft 476 kts 139°
2026-05-07 21:56 42.66510 18.56034 40999 ft 475 kts 139°
2026-05-07 21:57 42.61477 18.61918 40999 ft 479 kts 139°
2026-05-07 21:57 42.56401 18.67838 41000 ft 480 kts 139°
2026-05-07 21:58 42.51343 18.73723 40999 ft 478 kts 139°
2026-05-07 21:58 42.46302 18.79577 40998 ft 476 kts 139°
2026-05-07 21:59 42.41251 18.85428 41000 ft 479 kts 139°
2026-05-07 21:59 42.36214 18.91251 41001 ft 479 kts 139°
2026-05-07 22:00 42.31141 18.97102 41001 ft 478 kts 139°
2026-05-07 22:00 42.26089 19.02917 41002 ft 476 kts 139°
2026-05-07 22:01 42.21056 19.08696 41001 ft 474 kts 140°
2026-05-07 22:01 42.16035 19.14450 40997 ft 476 kts 140°
2026-05-07 22:02 42.10972 19.20239 41000 ft 478 kts 140°
2026-05-07 22:02 42.05930 19.25992 41000 ft 479 kts 140°
2026-05-07 22:03 42.00854 19.31771 41003 ft 476 kts 140°
2026-05-07 22:03 41.95821 19.37489 41001 ft 472 kts 140°
2026-05-07 22:04 41.90796 19.43186 41000 ft 472 kts 140°
2026-05-07 22:04 41.85771 19.48871 41000 ft 473 kts 140°
2026-05-07 22:05 41.80741 19.54548 41000 ft 472 kts 140°
2026-05-07 22:05 41.75711 19.60214 40999 ft 472 kts 140°
2026-05-07 22:06 41.70714 19.65831 41000 ft 472 kts 140°
2026-05-07 22:06 41.65683 19.71474 40999 ft 472 kts 140°
2026-05-07 22:07 41.60647 19.77111 40997 ft 474 kts 140°
2026-05-07 22:07 41.55568 19.82784 40997 ft 477 kts 140°
2026-05-07 22:08 41.50466 19.88471 40999 ft 479 kts 140°
2026-05-07 22:08 41.45356 19.94154 41000 ft 477 kts 140°
2026-05-07 22:09 41.40257 19.99813 40999 ft 477 kts 140°
2026-05-07 22:09 41.35140 20.05480 40997 ft 482 kts 140°
2026-05-07 22:10 41.29989 20.11173 41000 ft 479 kts 140°
2026-05-07 22:10 41.24850 20.16840 41001 ft 480 kts 140°
2026-05-07 22:11 41.19750 20.22452 41000 ft 478 kts 140°
2026-05-07 22:11 41.14626 20.28080 40998 ft 477 kts 140°
2026-05-07 22:12 41.09495 20.33703 40997 ft 481 kts 140°
2026-05-07 22:12 41.04307 20.39376 41001 ft 484 kts 140°
2026-05-07 22:13 40.99130 20.45026 41001 ft 480 kts 140°
2026-05-07 22:13 40.93982 20.50632 41000 ft 478 kts 140°
2026-05-07 22:14 40.88846 20.56214 41000 ft 478 kts 140°
2026-05-07 22:14 40.83691 20.61805 41000 ft 481 kts 140°
2026-05-07 22:15 40.78505 20.67417 40999 ft 481 kts 141°
2026-05-07 22:15 40.73333 20.73002 41003 ft 479 kts 141°
2026-05-07 22:16 40.68179 20.78557 41001 ft 478 kts 141°
2026-05-07 22:16 40.63027 20.84098 41000 ft 478 kts 141°
2026-05-07 22:17 40.57881 20.89621 41000 ft 482 kts 141°
2026-05-07 22:17 40.52695 20.95176 41001 ft 480 kts 141°
2026-05-07 22:18 40.45808 21.02535 41000 ft 479 kts 141°
2026-05-07 22:19 40.39756 21.08985 40999 ft 479 kts 141°
2026-05-07 22:19 40.35452 21.13564 41002 ft 479 kts 141°
2026-05-07 22:20 40.30271 21.19064 41000 ft 479 kts 141°
2026-05-07 22:20 40.25094 21.24548 41000 ft 478 kts 141°
2026-05-07 22:21 40.19924 21.30016 41000 ft 477 kts 141°
2026-05-07 22:21 40.14743 21.35482 40999 ft 477 kts 141°
2026-05-07 22:22 40.09602 21.40897 41000 ft 477 kts 141°
2026-05-07 22:22 40.04434 21.46328 41000 ft 476 kts 141°
2026-05-07 22:23 39.99274 21.51741 40999 ft 477 kts 141°
2026-05-07 22:23 39.94122 21.57191 41000 ft 477 kts 139°
2026-05-07 22:24 39.89123 21.62894 41000 ft 476 kts 139°
2026-05-07 22:24 39.84636 21.67994 41000 ft 476 kts 139°
2026-05-07 22:25 39.79766 21.73490 40998 ft 476 kts 139°
2026-05-07 22:25 39.74748 21.79133 41001 ft 477 kts 139°
2026-05-07 22:26 39.69724 21.84768 41000 ft 476 kts 139°
2026-05-07 22:26 39.64741 21.90345 41001 ft 475 kts 139°
2026-05-07 22:27 39.59742 21.95928 41001 ft 473 kts 139°
2026-05-07 22:27 39.54753 22.01489 40999 ft 473 kts 139°
2026-05-07 22:28 39.49767 22.07035 41000 ft 472 kts 139°
2026-05-07 22:28 39.44787 22.12565 41000 ft 472 kts 139°
2026-05-07 22:29 39.39784 22.18109 41002 ft 473 kts 139°
2026-05-07 22:29 39.34783 22.23640 40999 ft 473 kts 139°
2026-05-07 22:30 39.29780 22.29162 40999 ft 473 kts 139°
2026-05-07 22:30 39.24809 22.34638 40998 ft 473 kts 139°
2026-05-07 22:31 39.19786 22.40161 41000 ft 476 kts 139°
2026-05-07 22:31 39.14735 22.45704 41000 ft 476 kts 140°
2026-05-07 22:32 39.09687 22.51232 41000 ft 476 kts 140°
2026-05-07 22:32 39.04629 22.56761 41000 ft 477 kts 140°
2026-05-07 22:33 38.99546 22.62306 41000 ft 480 kts 140°
2026-05-07 22:33 38.94458 22.67846 41001 ft 478 kts 140°
2026-05-07 22:34 38.89404 22.73338 41001 ft 474 kts 140°
2026-05-07 22:34 38.84378 22.78790 41001 ft 472 kts 140°
2026-05-07 22:35 38.79393 22.84186 41000 ft 472 kts 140°
2026-05-07 22:35 38.74374 22.89609 41001 ft 472 kts 140°
2026-05-07 22:36 38.69342 22.95035 40999 ft 474 kts 140°
2026-05-07 22:36 38.64292 23.00471 40999 ft 473 kts 140°
2026-05-07 22:37 38.59247 23.05891 41000 ft 474 kts 140°
2026-05-07 22:37 38.54188 23.11316 41002 ft 475 kts 140°
2026-05-07 22:38 38.49134 23.16725 41001 ft 474 kts 140°
2026-05-07 22:38 38.44085 23.22119 40999 ft 473 kts 140°
2026-05-07 22:39 38.39071 23.27464 40999 ft 473 kts 140°
2026-05-07 22:39 38.34050 23.32808 40432 ft 468 kts 140°
2026-05-07 22:39 38.31542 23.35474 39565 ft 472 kts 140°
2026-05-07 22:40 38.29007 23.38166 38685 ft 476 kts 140°
2026-05-07 22:40 38.26461 23.40866 37842 ft 478 kts 140°
2026-05-07 22:40 38.23906 23.43573 37012 ft 479 kts 140°
2026-05-07 22:40 38.21344 23.46286 36161 ft 480 kts 140°
2026-05-07 22:41 38.18791 23.48987 35319 ft 472 kts 140°
2026-05-07 22:41 38.16363 23.51733 34485 ft 467 kts 135°
2026-05-07 22:41 38.14068 23.54667 33632 ft 469 kts 134°
2026-05-07 22:41 38.11788 23.57645 32756 ft 471 kts 134°
2026-05-07 22:42 38.09499 23.60634 31860 ft 472 kts 134°
2026-05-07 22:42 38.07198 23.63633 30812 ft 476 kts 134°
2026-05-07 22:42 38.04874 23.66656 29780 ft 479 kts 134°
2026-05-07 22:42 38.02544 23.69683 28856 ft 479 kts 134°
2026-05-07 22:43 38.00259 23.72647 28180 ft 474 kts 134°
2026-05-07 22:43 37.97966 23.75619 27491 ft 468 kts 134°
2026-05-07 22:43 37.95698 23.78555 26796 ft 463 kts 134°
2026-05-07 22:43 37.93453 23.81458 26103 ft 459 kts 134°
2026-05-07 22:44 37.91227 23.84335 25414 ft 455 kts 134°
2026-05-07 22:44 37.89023 23.87179 24735 ft 450 kts 134°
2026-05-07 22:44 37.86844 23.89990 24057 ft 444 kts 134°
2026-05-07 22:44 37.84690 23.92766 23398 ft 439 kts 134°
2026-05-07 22:45 37.82560 23.95508 22726 ft 434 kts 134°
2026-05-07 22:45 37.80457 23.98213 22069 ft 429 kts 134°
2026-05-07 22:45 37.78380 24.00882 21406 ft 423 kts 134°
2026-05-07 22:45 37.76328 24.03518 20757 ft 418 kts 134°
2026-05-07 22:46 37.74299 24.06120 20097 ft 413 kts 134°
2026-05-07 22:46 37.72294 24.08692 19446 ft 408 kts 134°
2026-05-07 22:46 37.70339 24.11195 18796 ft 403 kts 134°
2026-05-07 22:46 37.68381 24.13702 18149 ft 399 kts 134°
2026-05-07 22:47 37.66441 24.16183 17475 ft 394 kts 134°
2026-05-07 22:47 37.64521 24.18636 16824 ft 390 kts 134°
2026-05-07 22:47 37.62626 24.21056 16155 ft 386 kts 134°
2026-05-07 22:47 37.60749 24.23451 15508 ft 381 kts 134°
2026-05-07 22:48 37.58977 24.25912 14841 ft 377 kts 127°
2026-05-07 22:48 37.57709 24.28766 14206 ft 372 kts 110°
2026-05-07 22:48 37.57167 24.31929 13558 ft 368 kts 93°
2026-05-07 22:48 37.57382 24.35116 12911 ft 364 kts 76°
2026-05-07 22:49 37.58302 24.38055 12277 ft 359 kts 60°
2026-05-07 22:49 37.59822 24.40515 11640 ft 355 kts 44°
2026-05-07 22:49 37.61808 24.42316 11093 ft 348 kts 27°
2026-05-07 22:49 37.64020 24.43311 10950 ft 325 kts 12°
2026-05-07 22:50 37.66138 24.43556 10862 ft 290 kts 358°
2026-05-07 22:50 37.68061 24.43215 10760 ft 272 kts 345°
2026-05-07 22:50 37.69800 24.42402 10639 ft 264 kts 333°
2026-05-07 22:50 37.71339 24.41211 10531 ft 263 kts 324°
2026-05-07 22:51 37.72819 24.39843 10404 ft 263 kts 323°
2026-05-07 22:51 37.74282 24.38460 10272 ft 263 kts 323°
2026-05-07 22:51 37.75748 24.37080 10134 ft 263 kts 323°
2026-05-07 22:51 37.77210 24.35706 9862 ft 261 kts 323°
2026-05-07 22:52 37.78690 24.34319 9609 ft 273 kts 323°
2026-05-07 22:52 37.80240 24.32867 9536 ft 278 kts 323°
2026-05-07 22:52 37.81790 24.31416 9069 ft 277 kts 323°
2026-05-07 22:52 37.83340 24.29964 8626 ft 277 kts 323°
2026-05-07 22:53 37.84879 24.28522 8286 ft 272 kts 323°
2026-05-07 22:53 37.86415 24.27093 8012 ft 276 kts 324°
2026-05-07 22:53 37.88046 24.25844 7661 ft 273 kts 334°
2026-05-07 22:53 37.89821 24.25041 7334 ft 271 kts 347°
2026-05-07 22:54 37.91674 24.24653 7019 ft 270 kts 353°
2026-05-07 22:54 37.93537 24.24387 6694 ft 269 kts 354°
2026-05-07 22:54 37.95369 24.24135 6393 ft 267 kts 354°
2026-05-07 22:54 37.97242 24.23873 6062 ft 266 kts 353°
2026-05-07 22:55 37.99076 24.23605 5727 ft 265 kts 353°
2026-05-07 22:55 38.00862 24.23063 5403 ft 264 kts 341°
2026-05-07 22:55 38.02565 24.22206 5096 ft 263 kts 335°
2026-05-07 22:55 38.04178 24.21199 4785 ft 261 kts 332°
2026-05-07 22:56 38.05768 24.20031 4460 ft 260 kts 328°
2026-05-07 22:56 38.07246 24.18767 4188 ft 257 kts 324°
2026-05-07 22:56 38.08571 24.17358 4094 ft 241 kts 314°
2026-05-07 22:56 38.09550 24.15786 3997 ft 215 kts 301°
2026-05-07 22:57 38.10168 24.14178 3955 ft 193 kts 290°
2026-05-07 22:57 38.10505 24.12587 3841 ft 181 kts 279°
2026-05-07 22:57 38.10614 24.11044 3743 ft 170 kts 270°
2026-05-07 22:57 38.10369 24.09601 3670 ft 168 kts 243°
2026-05-07 22:58 38.09649 24.08529 3610 ft 154 kts 219°
2026-05-07 22:58 38.08809 24.07717 3522 ft 151 kts 216°
2026-05-07 22:58 38.07955 24.06957 3384 ft 149 kts 216°
2026-05-07 22:58 38.07155 24.06194 3269 ft 138 kts 217°
2026-05-07 22:59 38.06416 24.05487 3175 ft 131 kts 216°
2026-05-07 22:59 38.05681 24.04799 3000 ft 131 kts 217°
2026-05-07 22:59 38.04950 24.04101 2825 ft 132 kts 217°
2026-05-07 22:59 38.04219 24.03401 2642 ft 131 kts 217°
2026-05-07 23:00 38.03490 24.02705 2471 ft 131 kts 217°
2026-05-07 23:00 38.02764 24.02011 2307 ft 131 kts 217°
2026-05-07 23:00 38.02038 24.01317 2122 ft 130 kts 217°
2026-05-07 23:00 38.01316 24.00626 1945 ft 130 kts 217°
2026-05-07 23:01 38.00593 23.99936 1777 ft 130 kts 217°
2026-05-07 23:01 37.99873 23.99247 1611 ft 129 kts 217°
2026-05-07 23:01 37.99155 23.98561 1428 ft 129 kts 217°
2026-05-07 23:01 37.98439 23.97878 1269 ft 129 kts 217°
2026-05-07 23:02 37.97723 23.97194 1084 ft 129 kts 217°
2026-05-07 23:02 37.97009 23.96512 924 ft 128 kts 217°
2026-05-07 23:02 37.96297 23.95833 742 ft 128 kts 217°
2026-05-07 23:02 37.95586 23.95154 581 ft 128 kts 217°
2026-05-07 23:03 37.94878 23.94479 401 ft 128 kts 217°
2026-05-07 23:03 37.94176 23.93808 298 ft 121 kts 216°
2026-05-07 23:03 37.93663 23.93329 290 ft 51 kts 217°
2026-05-07 23:03 37.93570 23.93241 286 ft 6 kts 217°
2026-05-07 23:04 37.93508 23.93191 286 ft 14 kts 201°
2026-05-07 23:04 37.93385 23.93143 285 ft 23 kts 192°
2026-05-07 23:04 37.93317 23.93131 283 ft 4 kts 184°
2026-05-07 23:04 37.93275 23.93148 283 ft 5 kts 135°
2026-05-07 23:05 37.93245 23.93226 283 ft 15 kts 113°
2026-05-07 23:05 37.93244 23.93336 284 ft 10 kts 53°
2026-05-07 23:05 37.93313 23.93412 285 ft 17 kts 37°
2026-05-07 23:05 37.93371 23.93522 286 ft 11 kts 99°
2026-05-07 23:06 37.93328 23.93612 287 ft 14 kts 128°
2026-05-07 23:06 37.93260 23.93724 293 ft 16 kts 127°
2026-05-07 23:06 37.93188 23.93846 294 ft 16 kts 127°
2026-05-07 23:06 37.93118 23.93962 296 ft 17 kts 127°
2026-05-07 23:07 37.93064 23.94055 296 ft 11 kts 127°
2026-05-07 23:07 37.93061 23.94061 296 ft 0 kts 128°
2026-05-07 23:08 37.93057 23.94067 296 ft 3 kts 126°
2026-05-07 23:08 37.93030 23.94113 298 ft 9 kts 127°
2026-05-07 23:08 37.92979 23.94197 298 ft 15 kts 128°
2026-05-07 23:08 37.92907 23.94313 300 ft 18 kts 128°
2026-05-07 23:09 37.92905 23.94430 300 ft 16 kts 40°
2026-05-07 23:09 37.92994 23.94513 299 ft 17 kts 37°
2026-05-07 23:09 37.93099 23.94585 295 ft 13 kts 11°
2026-05-07 23:09 37.93168 23.94598 297 ft 17 kts
2026-05-07 23:10 37.93274 23.94660 297 ft 2 kts 35°
2026-05-07 23:10 37.93292 23.94677 296 ft 7 kts 38°
2026-05-07 23:10 37.93349 23.94732 297 ft 12 kts 37°
2026-05-07 23:10 37.93398 23.94779 295 ft 11 kts 37°
2026-05-07 23:11 37.93455 23.94824 293 ft 10 kts 16°
2026-05-07 23:11 37.93475 23.94818 296 ft 2 kts 333°
2026-05-07 23:11 37.93490 23.94791 296 ft 7 kts 305°
2026-05-07 23:11 37.93502 23.94769 296 ft 5 kts 306°
2026-05-07 23:12 37.93508 23.94760 295 ft 0 kts 306°